{"data":{"norad_id":48116,"intl_designator":"2021-027AA","name":"STARLINK-2454","alt_names":[],"object_type":"PAYLOAD","status":"ACTIVE","operator":null,"country":"US","launch_date":"2021-04-07","launch_site_code":"AFETR","launch_vehicle":null,"mission":null,"orbit_class":"UNKNOWN","rcs_meters":null,"size_class":null,"mass_kg":null,"dimensions":null,"purposes":["comms"],"wikipedia_slug":null,"has_3d_model":false,"image_url":null,"decayed_at":null,"tle_current":{"epoch":"2026-05-25T01:22:10.195680Z","epoch_age_seconds":66186,"freshness":"FRESH","line1":"1 48116U 21027AA  26145.05706245  .00001733  00000+0  70648-4 0  9991","line2":"2 48116  53.1593 170.5451 0001446  90.0719 270.0448 15.30195081284206","mean_motion":15.30195081,"eccentricity":0.0001446,"inclination_deg":53.1593,"raan_deg":170.5451,"arg_perigee_deg":90.0719,"mean_anomaly_deg":270.0448,"bstar":7.0648e-5,"rev_number":28420,"period_min":94.105648219634,"perigee_km":474.23875987299,"apogee_km":476.22075353903,"semimajor_km":6853.366756706,"source":"CELESTRAK","updated_at":"2026-05-25T13:38:16.645057Z"}}}